Time,TemperatureF,DewpointF,PressureIn,WindDirection,WindDirectionDegrees,WindSpeedMPH,WindSpeedGustMPH,Humidity,HourlyPrecipIn,Conditions,Clouds,dailyrainin,SoftwareType,DateUTC
2013-03-05 00:00:00,33.9,29.6,29.92,ENE,77,2.0,4.0,84,0.00,,---,0.00,VWS V14.01,2013-03-05 06:00:00,
2013-03-05 00:05:00,33.9,29.3,29.92,ESE,103,3.0,7.0,83,0.00,,---,0.00,VWS V14.01,2013-03-05 06:05:00,
2013-03-05 00:10:00,33.9,29.3,29.92,ENE,74,2.0,7.0,83,0.00,,---,0.00,VWS V14.01,2013-03-05 06:10:00,
2013-03-05 00:15:00,34.0,29.4,29.91,ENE,69,4.0,7.0,83,0.00,,---,0.00,VWS V14.01,2013-03-05 06:15:00,
2013-03-05 00:20:00,34.0,29.4,29.91,East,82,3.0,7.0,83,0.00,,---,0.00,VWS V14.01,2013-03-05 06:20:00,
2013-03-05 00:25:00,34.1,29.5,29.91,ENE,75,1.0,7.0,83,0.00,,---,0.00,VWS V14.01,2013-03-05 06:25:00,
2013-03-05 00:30:00,34.1,29.5,29.91,East,80,4.0,4.0,83,0.00,,---,0.00,VWS V14.01,2013-03-05 06:30:00,
2013-03-05 00:35:00,34.1,29.5,29.91,ENE,57,2.0,6.0,83,0.00,,---,0.00,VWS V14.01,2013-03-05 06:35:00,
2013-03-05 00:40:00,34.0,29.4,29.91,ENE,67,5.0,7.0,83,0.00,,---,0.00,VWS V14.01,2013-03-05 06:40:00,
2013-03-05 00:45:00,34.0,29.7,29.91,ENE,73,5.0,9.0,84,0.00,,---,0.00,VWS V14.01,2013-03-05 06:45:00,
2013-03-05 00:50:00,33.9,29.6,29.91,East,89,5.0,9.0,84,0.00,,---,0.00,VWS V14.01,2013-03-05 06:50:00,
2013-03-05 00:55:00,33.9,29.6,29.91,ENE,68,5.0,9.0,84,0.00,,---,0.00,VWS V14.01,2013-03-05 06:55:00,
2013-03-05 01:00:00,33.9,29.6,29.91,ENE,61,6.0,7.0,84,0.00,,---,0.00,VWS V14.01,2013-03-05 07:00:00,
2013-03-05 01:05:00,33.8,29.5,29.91,ENE,69,2.0,8.0,84,0.00,,---,0.00,VWS V14.01,2013-03-05 07:05:00,
2013-03-05 01:10:00,33.8,29.8,29.91,East,89,6.0,8.0,85,0.00,,---,0.00,VWS V14.01,2013-03-05 07:10:00,
2013-03-05 01:15:00,33.8,29.8,29.91,East,82,5.0,8.0,85,0.00,,---,0.00,VWS V14.01,2013-03-05 07:15:00,
2013-03-05 01:20:00,33.8,29.8,29.90,ENE,78,4.0,8.0,85,0.00,,---,0.00,VWS V14.01,2013-03-05 07:20:00,
2013-03-05 01:25:00,33.8,29.8,29.90,ENE,70,3.0,8.0,85,0.00,,---,0.00,VWS V14.01,2013-03-05 07:25:00,
2013-03-05 01:30:00,33.8,29.8,29.90,East,101,2.0,6.0,85,0.00,,---,0.00,VWS V14.01,2013-03-05 07:30:00,
2013-03-05 01:35:00,33.8,29.8,29.90,East,92,5.0,7.0,85,0.00,,---,0.00,VWS V14.01,2013-03-05 07:35:00,
2013-03-05 01:40:00,33.7,29.7,29.90,East,91,2.0,7.0,85,0.00,,---,0.00,VWS V14.01,2013-03-05 07:40:00,
2013-03-05 01:45:00,33.7,30.0,29.90,ENE,70,4.0,7.0,86,0.00,,---,0.00,VWS V14.01,2013-03-05 07:45:00,
2013-03-05 01:50:00,33.7,30.0,29.90,ENE,67,4.0,7.0,86,0.00,,---,0.00,VWS V14.01,2013-03-05 07:50:00,
2013-03-05 01:55:00,33.6,30.1,29.89,ENE,64,6.0,8.0,87,0.00,,---,0.00,VWS V14.01,2013-03-05 07:55:00,
2013-03-05 02:00:00,33.6,30.1,29.89,East,84,7.0,7.0,87,0.00,,---,0.00,VWS V14.01,2013-03-05 08:00:00,
2013-03-05 02:05:00,33.5,30.0,29.89,ENE,73,4.0,7.0,87,0.00,,---,0.00,VWS V14.01,2013-03-05 08:05:00,
2013-03-05 02:10:00,33.6,30.1,29.89,ENE,67,2.0,7.0,87,0.00,,---,0.00,VWS V14.01,2013-03-05 08:10:00,
2013-03-05 02:15:00,33.6,30.1,29.89,NE,54,4.0,7.0,87,0.00,,---,0.00,VWS V14.01,2013-03-05 08:15:00,
2013-03-05 02:20:00,33.5,30.0,29.89,ENE,70,4.0,7.0,87,0.00,,---,0.00,VWS V14.01,2013-03-05 08:20:00,
2013-03-05 02:25:00,33.5,30.0,29.89,ENE,74,5.0,7.0,87,0.00,,---,0.00,VWS V14.01,2013-03-05 08:25:00,
2013-03-05 02:30:00,33.5,30.0,29.88,ENE,65,7.0,7.0,87,0.00,,---,0.00,VWS V14.01,2013-03-05 08:30:00,
2013-03-05 02:35:00,33.5,30.0,29.89,East,92,6.0,7.0,87,0.00,,---,0.00,VWS V14.01,2013-03-05 08:35:00,
2013-03-05 02:40:00,33.5,30.3,29.89,East,94,1.0,7.0,88,0.00,,---,0.00,VWS V14.01,2013-03-05 08:40:00,
2013-03-05 02:45:00,33.4,30.2,29.89,NE,53,3.0,7.0,88,0.00,,---,0.00,VWS V14.01,2013-03-05 08:45:00,
2013-03-05 02:50:00,33.4,30.2,29.89,ENE,78,2.0,7.0,88,0.00,,---,0.00,VWS V14.01,2013-03-05 08:50:00,
2013-03-05 02:55:00,33.4,30.2,29.89,East,85,2.0,7.0,88,0.00,,---,0.00,VWS V14.01,2013-03-05 08:55:00,
2013-03-05 03:00:00,33.3,30.4,29.88,ENE,74,3.0,4.0,89,0.00,,---,0.00,VWS V14.01,2013-03-05 09:00:00,
2013-03-05 03:05:00,33.3,30.4,29.88,East,90,2.0,6.0,89,0.00,,---,0.00,VWS V14.01,2013-03-05 09:05:00,
2013-03-05 03:10:00,33.3,30.4,29.88,ENE,78,4.0,6.0,89,0.00,,---,0.00,VWS V14.01,2013-03-05 09:10:00,
2013-03-05 03:15:00,33.2,30.3,29.88,ENE,71,2.0,6.0,89,0.00,,---,0.00,VWS V14.01,2013-03-05 09:15:00,
2013-03-05 03:20:00,33.1,30.5,29.88,ENE,71,0.0,6.0,90,0.00,,---,0.00,VWS V14.01,2013-03-05 09:20:00,
2013-03-05 03:25:00,33.1,30.5,29.88,ENE,71,5.0,6.0,90,0.00,,---,0.00,VWS V14.01,2013-03-05 09:25:00,
2013-03-05 03:30:00,33.0,30.4,29.88,ENE,61,0.0,4.0,90,0.00,,---,0.00,VWS V14.01,2013-03-05 09:30:00,
2013-03-05 03:35:00,33.0,30.7,29.88,ENE,66,3.0,5.0,91,0.00,,---,0.00,VWS V14.01,2013-03-05 09:35:00,
2013-03-05 03:40:00,32.9,30.6,29.88,ENE,74,2.0,5.0,91,0.00,,---,0.00,VWS V14.01,2013-03-05 09:40:00,
2013-03-05 03:45:00,32.8,30.5,29.88,ENE,68,4.0,6.0,91,0.00,,---,0.00,VWS V14.01,2013-03-05 09:45:00,
2013-03-05 03:50:00,32.8,30.7,29.88,ENE,71,3.0,6.0,92,0.00,,---,0.00,VWS V14.01,2013-03-05 09:50:00,
2013-03-05 03:55:00,32.8,30.7,29.87,ENE,59,2.0,6.0,92,0.00,,---,0.00,VWS V14.01,2013-03-05 09:55:00,
2013-03-05 04:00:00,32.7,30.6,29.87,NE,48,4.0,5.0,92,0.00,,---,0.00,VWS V14.01,2013-03-05 10:00:00,
2013-03-05 04:05:00,32.6,30.5,29.87,NE,46,0.0,5.0,92,0.00,,---,0.00,VWS V14.01,2013-03-05 10:05:00,
2013-03-05 04:10:00,32.6,30.8,29.88,NE,46,0.0,5.0,93,0.00,,---,0.00,VWS V14.01,2013-03-05 10:10:00,
2013-03-05 04:15:00,32.6,30.8,29.88,NE,46,0.0,5.0,93,0.00,,---,0.00,VWS V14.01,2013-03-05 10:15:00,
2013-03-05 04:20:00,32.6,30.8,29.87,NE,46,1.0,5.0,93,0.00,,---,0.00,VWS V14.01,2013-03-05 10:20:00,
2013-03-05 04:25:00,32.5,30.7,29.87,NE,46,0.0,5.0,93,0.00,,---,0.00,VWS V14.01,2013-03-05 10:25:00,
2013-03-05 04:30:00,32.5,30.7,29.87,East,82,2.0,5.0,93,0.00,,---,0.00,VWS V14.01,2013-03-05 10:30:00,
2013-03-05 04:35:00,32.4,30.6,29.87,ENE,70,2.0,5.0,93,0.00,,---,0.00,VWS V14.01,2013-03-05 10:35:00,
2013-03-05 04:40:00,32.4,30.6,29.87,ENE,70,2.0,5.0,93,0.00,,---,0.00,VWS V14.01,2013-03-05 10:40:00,
2013-03-05 04:45:00,32.3,30.8,29.87,NE,44,0.0,5.0,94,0.00,,---,0.00,VWS V14.01,2013-03-05 10:45:00,
2013-03-05 04:50:00,32.3,30.8,29.87,NE,54,2.0,5.0,94,0.00,,---,0.00,VWS V14.01,2013-03-05 10:50:00,
2013-03-05 04:55:00,32.3,30.8,29.87,NE,54,0.0,5.0,94,0.00,,---,0.00,VWS V14.01,2013-03-05 10:55:00,
2013-03-05 05:00:00,32.3,30.8,29.87,NE,54,0.0,1.0,94,0.00,,---,0.00,VWS V14.01,2013-03-05 11:00:00,
2013-03-05 05:05:00,32.3,30.8,29.87,NE,55,0.0,3.0,94,0.00,,---,0.00,VWS V14.01,2013-03-05 11:05:00,
2013-03-05 05:10:00,32.3,30.8,29.87,NE,55,0.0,4.0,94,0.00,,---,0.00,VWS V14.01,2013-03-05 11:10:00,
2013-03-05 05:15:00,32.3,30.8,29.88,NE,55,0.0,4.0,94,0.00,,---,0.00,VWS V14.01,2013-03-05 11:15:00,
2013-03-05 05:20:00,32.3,30.8,29.88,NE,55,1.0,4.0,94,0.00,,---,0.00,VWS V14.01,2013-03-05 11:20:00,
2013-03-05 05:25:00,32.3,30.8,29.88,NE,55,0.0,4.0,94,0.00,,---,0.00,VWS V14.01,2013-03-05 11:25:00,
2013-03-05 05:30:00,32.3,30.8,29.88,NE,55,0.0,2.0,94,0.00,,---,0.00,VWS V14.01,2013-03-05 11:30:00,
2013-03-05 05:35:00,32.3,30.8,29.88,NE,55,0.0,2.0,94,0.00,,---,0.00,VWS V14.01,2013-03-05 11:35:00,
2013-03-05 05:40:00,32.3,30.8,29.88,NE,55,0.0,2.0,94,0.00,,---,0.00,VWS V14.01,2013-03-05 11:40:00,
2013-03-05 05:45:00,32.2,30.7,29.87,NE,55,0.0,2.0,94,0.00,,---,0.00,VWS V14.01,2013-03-05 11:45:00,
2013-03-05 05:50:00,32.2,30.7,29.88,NE,55,0.0,2.0,94,0.00,,---,0.00,VWS V14.01,2013-03-05 11:50:00,
2013-03-05 05:55:00,32.3,31.0,29.88,NE,55,0.0,2.0,95,0.00,,---,0.00,VWS V14.01,2013-03-05 11:55:00,
2013-03-05 06:00:00,32.2,30.9,29.88,NE,55,0.0,0.0,95,0.00,,---,0.00,VWS V14.01,2013-03-05 12:00:00,
2013-03-05 06:05:00,32.2,30.9,29.89,NE,55,0.0,0.0,95,0.00,,---,0.00,VWS V14.01,2013-03-05 12:05:00,
2013-03-05 06:10:00,32.2,30.9,29.89,NE,53,0.0,0.0,95,0.00,,---,0.00,VWS V14.01,2013-03-05 12:10:00,
2013-03-05 06:15:00,32.3,31.0,29.89,NE,53,0.0,1.0,95,0.00,,---,0.00,VWS V14.01,2013-03-05 12:15:00,
2013-03-05 06:20:00,32.2,30.9,29.89,NE,53,0.0,2.0,95,0.00,,---,0.00,VWS V14.01,2013-03-05 12:20:00,
2013-03-05 06:25:00,32.2,30.9,29.89,NE,53,0.0,2.0,95,0.00,,---,0.00,VWS V14.01,2013-03-05 12:25:00,
2013-03-05 06:30:00,32.2,30.9,29.89,NW,317,1.0,1.0,95,0.00,,---,0.00,VWS V14.01,2013-03-05 12:30:00,
2013-03-05 06:35:00,32.2,30.9,29.89,NW,317,4.0,4.0,95,0.00,,---,0.00,VWS V14.01,2013-03-05 12:35:00,
2013-03-05 06:40:00,32.2,30.9,29.89,NW,317,0.0,4.0,95,0.00,,---,0.00,VWS V14.01,2013-03-05 12:40:00,
2013-03-05 06:45:00,32.2,30.9,29.89,NW,317,0.0,4.0,95,0.00,,---,0.00,VWS V14.01,2013-03-05 12:45:00,
2013-03-05 06:50:00,32.1,30.8,29.89,NW,317,0.0,4.0,95,0.00,,---,0.00,VWS V14.01,2013-03-05 12:50:00,
2013-03-05 06:55:00,32.2,30.9,29.89,NW,317,2.0,4.0,95,0.00,,---,0.00,VWS V14.01,2013-03-05 12:55:00,
2013-03-05 07:00:00,32.2,30.9,29.89,NW,317,0.0,0.0,95,0.00,,---,0.00,VWS V14.01,2013-03-05 13:00:00,
2013-03-05 07:05:00,32.2,30.9,29.89,WNW,303,6.0,6.0,95,0.00,,---,0.00,VWS V14.01,2013-03-05 13:05:00,
2013-03-05 07:10:00,32.2,30.9,29.89,NW,306,0.0,6.0,95,0.00,,---,0.00,VWS V14.01,2013-03-05 13:10:00,
2013-03-05 07:15:00,32.2,30.9,29.89,NW,306,1.0,6.0,95,0.00,,---,0.00,VWS V14.01,2013-03-05 13:15:00,
2013-03-05 07:20:00,32.2,30.9,29.89,NW,306,3.0,6.0,95,0.00,,---,0.00,VWS V14.01,2013-03-05 13:20:00,
2013-03-05 07:25:00,32.2,30.9,29.88,WNW,291,2.0,6.0,95,0.00,,---,0.00,VWS V14.01,2013-03-05 13:25:00,
2013-03-05 07:30:00,32.1,30.8,29.89,NW,306,0.0,1.0,95,0.00,,---,0.00,VWS V14.01,2013-03-05 13:30:00,
2013-03-05 07:35:00,32.1,30.8,29.88,NW,317,0.0,5.0,95,0.00,,---,0.00,VWS V14.01,2013-03-05 13:35:00,
2013-03-05 07:40:00,32.1,30.8,29.89,NW,317,0.0,6.0,95,0.00,,---,0.00,VWS V14.01,2013-03-05 13:40:00,
2013-03-05 07:45:00,32.1,30.8,29.89,NW,317,1.0,6.0,95,0.00,,---,0.00,VWS V14.01,2013-03-05 13:45:00,
2013-03-05 07:50:00,32.1,30.8,29.89,NW,317,0.0,6.0,95,0.00,,---,0.00,VWS V14.01,2013-03-05 13:50:00,
2013-03-05 07:55:00,32.1,30.8,29.89,NW,317,0.0,6.0,95,0.00,,---,0.00,VWS V14.01,2013-03-05 13:55:00,
2013-03-05 08:00:00,32.1,30.8,29.89,NW,315,0.0,1.0,95,0.00,,---,0.00,VWS V14.01,2013-03-05 14:00:00,
2013-03-05 08:05:00,32.1,30.8,29.89,NW,312,0.0,5.0,95,0.00,,---,0.00,VWS V14.01,2013-03-05 14:05:00,
2013-03-05 08:10:00,32.1,30.8,29.89,WNW,299,5.0,6.0,95,0.00,,---,0.00,VWS V14.01,2013-03-05 14:10:00,
2013-03-05 08:15:00,32.0,30.7,29.89,WNW,298,2.0,6.0,95,0.00,,---,0.00,VWS V14.01,2013-03-05 14:15:00,
2013-03-05 08:20:00,32.0,30.7,29.89,WNW,302,1.0,6.0,95,0.00,,---,0.00,VWS V14.01,2013-03-05 14:20:00,
2013-03-05 08:25:00,32.0,30.7,29.89,WNW,302,1.0,6.0,95,0.00,,---,0.00,VWS V14.01,2013-03-05 14:25:00,
2013-03-05 08:30:00,32.1,30.8,29.89,WNW,303,4.0,4.0,95,0.00,,---,0.00,VWS V14.01,2013-03-05 14:30:00,
2013-03-05 08:35:00,32.1,30.8,29.88,WNW,303,0.0,6.0,95,0.00,,---,0.00,VWS V14.01,2013-03-05 14:35:00,
2013-03-05 08:40:00,32.3,31.0,29.88,WNW,303,2.0,6.0,95,0.00,,---,0.00,VWS V14.01,2013-03-05 14:40:00,
2013-03-05 08:45:00,32.3,31.0,29.88,WNW,297,5.0,7.0,95,0.00,,---,0.00,VWS V14.01,2013-03-05 14:45:00,
2013-03-05 08:50:00,32.3,31.0,29.88,WNW,284,5.0,7.0,95,0.00,,---,0.00,VWS V14.01,2013-03-05 14:50:00,
2013-03-05 08:55:00,32.4,31.4,29.88,WNW,289,4.0,8.0,96,0.00,,---,0.00,VWS V14.01,2013-03-05 14:55:00,
2013-03-05 09:00:00,32.4,31.4,29.87,West,276,9.0,9.0,96,0.00,,---,0.00,VWS V14.01,2013-03-05 15:00:00,
2013-03-05 09:05:00,32.4,31.4,29.87,WNW,290,5.0,9.0,96,0.00,,---,0.00,VWS V14.01,2013-03-05 15:05:00,
2013-03-05 09:10:00,32.4,31.4,29.87,West,278,4.0,10.0,96,0.00,,---,0.00,VWS V14.01,2013-03-05 15:10:00,
2013-03-05 09:15:00,32.3,31.0,29.87,WNW,287,9.0,11.0,95,0.00,,---,0.00,VWS V14.01,2013-03-05 15:15:00,
2013-03-05 09:20:00,32.3,31.0,29.87,NW,306,5.0,11.0,95,0.00,,---,0.00,VWS V14.01,2013-03-05 15:20:00,
2013-03-05 09:25:00,32.3,31.0,29.87,NW,312,4.0,11.0,95,0.00,,---,0.00,VWS V14.01,2013-03-05 15:25:00,
2013-03-05 09:30:00,32.2,30.9,29.87,NW,304,4.0,5.0,95,0.00,,---,0.00,VWS V14.01,2013-03-05 15:30:00,
2013-03-05 09:35:00,32.1,30.8,29.87,NW,309,6.0,9.0,95,0.00,,---,0.00,VWS V14.01,2013-03-05 15:35:00,
2013-03-05 09:40:00,32.1,30.8,29.87,WNW,294,3.0,9.0,95,0.00,,---,0.00,VWS V14.01,2013-03-05 15:40:00,
2013-03-05 09:45:00,32.0,30.7,29.87,WNW,288,5.0,10.0,95,0.00,,---,0.00,VWS V14.01,2013-03-05 15:45:00,
2013-03-05 09:50:00,31.8,30.5,29.87,NW,313,8.0,10.0,95,0.00,,---,0.00,VWS V14.01,2013-03-05 15:50:00,
2013-03-05 09:55:00,31.7,30.4,29.87,WNW,292,1.0,13.0,95,0.00,,---,0.00,VWS V14.01,2013-03-05 15:55:00,
2013-03-05 10:00:00,31.7,30.4,29.87,WNW,302,8.0,8.0,95,0.00,,---,0.00,VWS V14.01,2013-03-05 16:00:00,
2013-03-05 10:05:00,31.7,30.4,29.86,NNW,328,7.0,9.0,95,0.00,,---,0.00,VWS V14.01,2013-03-05 16:05:00,
2013-03-05 10:10:00,31.6,30.3,29.87,WSW,250,4.0,9.0,95,0.00,,---,0.00,VWS V14.01,2013-03-05 16:10:00,
2013-03-05 10:15:00,31.5,30.2,29.87,WNW,294,12.0,14.0,95,0.00,,---,0.00,VWS V14.01,2013-03-05 16:15:00,
2013-03-05 10:20:00,31.4,30.1,29.87,NW,313,6.0,15.0,95,0.00,,---,0.00,VWS V14.01,2013-03-05 16:20:00,
2013-03-05 10:25:00,31.4,30.1,29.87,West,262,9.0,15.0,95,0.00,,---,0.00,VWS V14.01,2013-03-05 16:25:00,
2013-03-05 10:30:00,31.4,30.1,29.87,NW,321,6.0,14.0,95,0.00,,---,0.00,VWS V14.01,2013-03-05 16:30:00,
2013-03-05 10:35:00,31.4,30.1,29.87,WNW,297,5.0,14.0,95,0.00,,---,0.00,VWS V14.01,2013-03-05 16:35:00,
2013-03-05 10:40:00,31.6,30.3,29.87,NW,321,6.0,14.0,95,0.00,,---,0.00,VWS V14.01,2013-03-05 16:40:00,
2013-03-05 10:45:00,31.8,30.8,29.87,NW,309,3.0,14.0,96,0.00,,---,0.00,VWS V14.01,2013-03-05 16:45:00,
2013-03-05 10:50:00,31.6,30.3,29.87,NNW,333,6.0,14.0,95,0.00,,---,0.00,VWS V14.01,2013-03-05 16:50:00,
2013-03-05 10:55:00,31.6,30.3,29.88,NW,317,8.0,14.0,95,0.00,,---,0.00,VWS V14.01,2013-03-05 16:55:00,
2013-03-05 11:00:00,31.5,30.2,29.88,WNW,285,7.0,15.0,95,0.00,,---,0.00,VWS V14.01,2013-03-05 17:00:00,
2013-03-05 11:05:00,31.5,30.2,29.88,NNW,331,7.0,16.0,95,0.00,,---,0.00,VWS V14.01,2013-03-05 17:05:00,
2013-03-05 11:10:00,31.4,30.1,29.88,NW,320,8.0,16.0,95,0.01,,---,0.01,VWS V14.01,2013-03-05 17:10:00,
2013-03-05 11:15:00,31.5,30.2,29.88,NW,315,9.0,16.0,95,0.01,,---,0.01,VWS V14.01,2013-03-05 17:15:00,
2013-03-05 11:20:00,31.3,30.0,29.88,WNW,296,7.0,16.0,95,0.01,,---,0.01,VWS V14.01,2013-03-05 17:20:00,
2013-03-05 11:25:00,31.2,29.9,29.88,WNW,302,16.0,16.0,95,0.02,,---,0.02,VWS V14.01,2013-03-05 17:25:00,
2013-03-05 11:30:00,31.1,29.8,29.88,NW,325,10.0,10.0,95,0.02,,---,0.02,VWS V14.01,2013-03-05 17:30:00,
2013-03-05 11:35:00,31.2,29.9,29.88,West,281,14.0,19.0,95,0.02,,---,0.02,VWS V14.01,2013-03-05 17:35:00,
2013-03-05 11:40:00,31.1,29.6,29.88,WNW,296,9.0,19.0,94,0.02,,---,0.02,VWS V14.01,2013-03-05 17:40:00,
2013-03-05 11:45:00,30.9,29.4,29.88,NW,304,14.0,21.0,94,0.02,,---,0.02,VWS V14.01,2013-03-05 17:45:00,
2013-03-05 11:50:00,30.7,29.2,29.88,West,280,12.0,21.0,94,0.03,,---,0.03,VWS V14.01,2013-03-05 17:50:00,
2013-03-05 11:55:00,30.6,29.1,29.88,NNW,327,10.0,21.0,94,0.03,,---,0.03,VWS V14.01,2013-03-05 17:55:00,
2013-03-05 12:00:00,30.7,29.2,29.88,WNW,290,7.0,10.0,94,0.03,,---,0.03,VWS V14.01,2013-03-05 18:00:00,
2013-03-05 12:05:00,30.6,29.1,29.88,WNW,292,12.0,18.0,94,0.03,,---,0.03,VWS V14.01,2013-03-05 18:05:00,
2013-03-05 12:10:00,30.6,29.1,29.88,NW,313,10.0,23.0,94,0.04,,---,0.04,VWS V14.01,2013-03-05 18:10:00,
2013-03-05 12:15:00,30.6,29.1,29.89,NW,316,5.0,23.0,94,0.04,,---,0.04,VWS V14.01,2013-03-05 18:15:00,
2013-03-05 12:20:00,30.6,29.1,29.89,NW,315,8.0,23.0,94,0.04,,---,0.04,VWS V14.01,2013-03-05 18:20:00,
2013-03-05 12:25:00,30.6,29.1,29.89,WNW,289,6.0,23.0,94,0.04,,---,0.04,VWS V14.01,2013-03-05 18:25:00,
2013-03-05 12:30:00,30.6,29.1,29.89,West,277,6.0,14.0,94,0.02,,---,0.04,VWS V14.01,2013-03-05 18:30:00,
2013-03-05 12:35:00,30.6,29.1,29.89,WNW,294,10.0,16.0,94,0.03,,---,0.05,VWS V14.01,2013-03-05 18:35:00,
2013-03-05 12:40:00,30.7,28.9,29.89,WNW,294,9.0,19.0,93,0.03,,---,0.05,VWS V14.01,2013-03-05 18:40:00,
2013-03-05 12:45:00,30.7,28.9,29.88,WNW,297,9.0,19.0,93,0.03,,---,0.05,VWS V14.01,2013-03-05 18:45:00,
2013-03-05 12:50:00,30.5,28.7,29.88,NW,315,13.0,19.0,93,0.03,,---,0.05,VWS V14.01,2013-03-05 18:50:00,
2013-03-05 12:55:00,30.4,28.4,29.88,NW,315,11.0,22.0,92,0.04,,---,0.06,VWS V14.01,2013-03-05 18:55:00,
2013-03-05 13:00:00,30.3,28.3,29.88,WNW,283,13.0,21.0,92,0.03,,---,0.06,VWS V14.01,2013-03-05 19:00:00,
2013-03-05 13:05:00,30.3,28.3,29.88,NW,313,8.0,21.0,92,0.03,,---,0.06,VWS V14.01,2013-03-05 19:05:00,
2013-03-05 13:10:00,30.3,28.3,29.88,NW,315,11.0,21.0,92,0.03,,---,0.06,VWS V14.01,2013-03-05 19:10:00,
2013-03-05 13:15:00,30.4,28.4,29.88,West,275,8.0,21.0,92,0.03,,---,0.06,VWS V14.01,2013-03-05 19:15:00,
2013-03-05 13:20:00,30.4,28.4,29.88,NW,318,8.0,21.0,92,0.03,,---,0.06,VWS V14.01,2013-03-05 19:20:00,
2013-03-05 13:25:00,30.5,28.2,29.88,West,274,9.0,21.0,91,0.03,,---,0.06,VWS V14.01,2013-03-05 19:25:00,
2013-03-05 13:30:00,30.5,28.2,29.88,West,265,7.0,16.0,91,0.02,,---,0.06,VWS V14.01,2013-03-05 19:30:00,
2013-03-05 13:35:00,30.5,28.2,29.88,NNW,328,12.0,16.0,91,0.02,,---,0.06,VWS V14.01,2013-03-05 19:35:00,
2013-03-05 13:40:00,30.5,28.2,29.88,WNW,291,7.0,19.0,91,0.02,,---,0.06,VWS V14.01,2013-03-05 19:40:00,
2013-03-05 13:45:00,30.5,28.2,29.89,West,281,12.0,19.0,91,0.03,,---,0.07,VWS V14.01,2013-03-05 19:45:00,
2013-03-05 13:50:00,30.5,28.2,29.89,WNW,292,12.0,20.0,91,0.03,,---,0.07,VWS V14.01,2013-03-05 19:50:00,
2013-03-05 13:55:00,30.5,27.9,29.89,NW,313,14.0,21.0,90,0.03,,---,0.07,VWS V14.01,2013-03-05 19:55:00,
2013-03-05 14:00:00,30.6,28.0,29.89,West,275,10.0,10.0,90,0.01,,---,0.07,VWS V14.01,2013-03-05 20:00:00,
2013-03-05 14:05:00,30.6,28.0,29.89,NW,306,6.0,19.0,90,0.01,,---,0.07,VWS V14.01,2013-03-05 20:05:00,
2013-03-05 14:10:00,30.6,28.0,29.89,NW,313,9.0,23.0,90,0.01,,---,0.07,VWS V14.01,2013-03-05 20:10:00,
2013-03-05 14:15:00,30.6,28.0,29.89,NW,313,9.0,23.0,90,0.01,,---,0.07,VWS V14.01,2013-03-05 20:15:00,
2013-03-05 14:20:00,30.7,28.1,29.89,West,275,8.0,23.0,90,0.01,,---,0.07,VWS V14.01,2013-03-05 20:20:00,
2013-03-05 14:25:00,30.6,27.8,29.89,WNW,288,15.0,23.0,89,0.02,,---,0.08,VWS V14.01,2013-03-05 20:25:00,
2013-03-05 14:30:00,30.5,27.4,29.89,West,280,14.0,16.0,88,0.02,,---,0.08,VWS V14.01,2013-03-05 20:30:00,
2013-03-05 14:35:00,30.5,27.4,29.89,WNW,283,8.0,21.0,88,0.02,,---,0.08,VWS V14.01,2013-03-05 20:35:00,
2013-03-05 14:40:00,30.5,27.4,29.90,WNW,285,18.0,24.0,88,0.02,,---,0.08,VWS V14.01,2013-03-05 20:40:00,
2013-03-05 14:45:00,30.6,27.5,29.90,West,271,10.0,26.0,88,0.02,,---,0.08,VWS V14.01,2013-03-05 20:45:00,
2013-03-05 14:49:00,30.7,27.6,29.90,WNW,284,8.0,26.0,88,0.02,,---,0.08,VWS V14.01,2013-03-05 20:49:00,
2013-03-05 14:54:00,30.8,27.7,29.90,WNW,285,10.0,26.0,88,0.02,,---,0.08,VWS V14.01,2013-03-05 20:54:00,
2013-03-05 14:59:00,30.8,27.4,29.91,West,280,13.0,20.0,87,0.01,,---,0.08,VWS V14.01,2013-03-05 20:59:00,
2013-03-05 15:00:00,30.2,26.8,29.91,WNW,287,9.0,23.0,87,0.00,,---,0.08,VWS V14.01,2013-03-05 21:00:00,
2013-03-05 15:04:00,30.8,27.4,29.90,NNW,328,15.0,21.0,87,0.01,,---,0.08,VWS V14.01,2013-03-05 21:04:00,
2013-03-05 15:09:00,30.8,27.4,29.91,West,267,13.0,21.0,87,0.01,,---,0.08,VWS V14.01,2013-03-05 21:09:00,
2013-03-05 15:14:00,30.6,27.2,29.91,West,267,18.0,21.0,87,0.01,,---,0.08,VWS V14.01,2013-03-05 21:14:00,
2013-03-05 15:19:00,30.5,26.8,29.91,NW,321,9.0,27.0,86,0.01,,---,0.08,VWS V14.01,2013-03-05 21:19:00,
2013-03-05 15:24:00,30.5,26.8,29.91,WNW,296,12.0,27.0,86,0.01,,---,0.08,VWS V14.01,2013-03-05 21:24:00,
2013-03-05 15:29:00,30.5,26.8,29.91,NW,318,9.0,20.0,86,0.00,,---,0.08,VWS V14.01,2013-03-05 21:29:00,
2013-03-05 15:30:00,29.9,26.5,29.92,WNW,303,10.0,22.0,87,0.00,,---,0.08,VWS V14.01,2013-03-05 21:30:00,
2013-03-05 15:34:00,30.4,27.0,29.91,West,265,6.0,21.0,87,0.00,,---,0.08,VWS V14.01,2013-03-05 21:34:00,
2013-03-05 15:39:00,30.5,27.1,29.91,West,279,13.0,21.0,87,0.00,,---,0.08,VWS V14.01,2013-03-05 21:39:00,
2013-03-05 15:44:00,30.5,27.1,29.91,NW,325,8.0,21.0,87,0.00,,---,0.08,VWS V14.01,2013-03-05 21:44:00,
2013-03-05 15:49:00,30.3,26.6,29.91,NNE,21,12.0,23.0,86,0.00,,---,0.08,VWS V14.01,2013-03-05 21:49:00,
2013-03-05 15:54:00,30.3,26.9,29.91,WNW,286,9.0,23.0,87,0.00,,---,0.08,VWS V14.01,2013-03-05 21:54:00,
2013-03-05 15:59:00,30.2,26.8,29.91,WNW,289,11.0,11.0,87,0.00,,---,0.08,VWS V14.01,2013-03-05 21:59:00,
2013-03-05 16:00:00,29.9,26.5,29.92,West,259,12.0,24.0,87,0.01,,---,0.09,VWS V14.01,2013-03-05 22:00:00,
2013-03-05 16:04:00,30.1,26.7,29.91,West,273,8.0,19.0,87,0.00,,---,0.08,VWS V14.01,2013-03-05 22:04:00,
2013-03-05 16:09:00,29.9,26.5,29.91,WNW,287,11.0,19.0,87,0.00,,---,0.08,VWS V14.01,2013-03-05 22:09:00,
2013-03-05 16:14:00,29.9,26.5,29.92,West,271,11.0,19.0,87,0.00,,---,0.08,VWS V14.01,2013-03-05 22:14:00,
2013-03-05 16:19:00,29.9,26.5,29.92,West,272,12.0,19.0,87,0.00,,---,0.08,VWS V14.01,2013-03-05 22:19:00,
2013-03-05 16:24:00,29.9,26.5,29.92,West,276,5.0,20.0,87,0.00,,---,0.08,VWS V14.01,2013-03-05 22:24:00,
2013-03-05 16:29:00,29.9,26.5,29.92,NW,306,12.0,12.0,87,0.00,,---,0.08,VWS V14.01,2013-03-05 22:29:00,
2013-03-05 16:30:00,29.9,26.8,29.93,WNW,289,15.0,27.0,88,0.01,,---,0.09,VWS V14.01,2013-03-05 22:30:00,
2013-03-05 16:34:00,29.9,26.5,29.92,West,272,8.0,24.0,87,0.01,,---,0.09,VWS V14.01,2013-03-05 22:34:00,
2013-03-05 16:39:00,29.9,26.5,29.92,NW,315,15.0,24.0,87,0.01,,---,0.09,VWS V14.01,2013-03-05 22:39:00,
2013-03-05 16:44:00,29.9,26.5,29.92,West,261,10.0,24.0,87,0.01,,---,0.09,VWS V14.01,2013-03-05 22:44:00,
2013-03-05 16:49:00,29.9,26.5,29.92,NW,314,7.0,24.0,87,0.01,,---,0.09,VWS V14.01,2013-03-05 22:49:00,
2013-03-05 16:54:00,29.9,26.5,29.92,NW,319,12.0,24.0,87,0.01,,---,0.09,VWS V14.01,2013-03-05 22:54:00,
2013-03-05 16:59:00,29.9,26.5,29.92,West,272,18.0,19.0,87,0.01,,---,0.09,VWS V14.01,2013-03-05 22:59:00,
2013-03-05 17:00:00,29.9,26.8,29.95,WNW,296,8.0,23.0,88,0.01,,---,0.09,VWS V14.01,2013-03-05 23:00:00,
2013-03-05 17:04:00,30.0,26.6,29.92,NNW,327,8.0,25.0,87,0.01,,---,0.09,VWS V14.01,2013-03-05 23:04:00,
2013-03-05 17:09:00,30.0,26.6,29.92,West,276,7.0,25.0,87,0.01,,---,0.09,VWS V14.01,2013-03-05 23:09:00,
2013-03-05 17:14:00,30.0,26.6,29.93,West,272,10.0,25.0,87,0.01,,---,0.09,VWS V14.01,2013-03-05 23:14:00,
2013-03-05 17:19:00,30.0,26.9,29.93,WNW,288,8.0,25.0,88,0.01,,---,0.09,VWS V14.01,2013-03-05 23:19:00,
2013-03-05 17:24:00,29.9,26.8,29.93,WNW,283,18.0,27.0,88,0.01,,---,0.09,VWS V14.01,2013-03-05 23:24:00,
2013-03-05 17:29:00,30.0,26.9,29.93,WNW,292,9.0,19.0,88,0.01,,---,0.09,VWS V14.01,2013-03-05 23:29:00,
2013-03-05 17:30:00,29.9,27.3,29.96,NNW,331,7.0,23.0,90,0.00,,---,0.09,VWS V14.01,2013-03-05 23:30:00,
2013-03-05 17:34:00,29.9,26.8,29.93,WNW,290,14.0,21.0,88,0.01,,---,0.09,VWS V14.01,2013-03-05 23:34:00,
2013-03-05 17:39:00,29.9,26.8,29.94,West,278,13.0,21.0,88,0.01,,---,0.09,VWS V14.01,2013-03-05 23:39:00,
2013-03-05 17:44:00,29.9,26.8,29.94,WNW,302,9.0,23.0,88,0.01,,---,0.09,VWS V14.01,2013-03-05 23:44:00,
2013-03-05 17:49:00,29.9,26.8,29.94,West,279,11.0,23.0,88,0.01,,---,0.09,VWS V14.01,2013-03-05 23:49:00,
2013-03-05 17:54:00,29.9,26.8,29.94,West,275,11.0,23.0,88,0.01,,---,0.09,VWS V14.01,2013-03-05 23:54:00,
2013-03-05 17:59:00,29.9,27.1,29.95,WNW,284,21.0,21.0,89,0.00,,---,0.09,VWS V14.01,2013-03-05 23:59:00,
2013-03-05 18:00:00,30.1,27.5,29.97,West,278,10.0,22.0,90,0.00,,---,0.09,VWS V14.01,2013-03-06 00:00:00,
2013-03-05 18:04:00,29.9,27.1,29.95,West,275,9.0,21.0,89,0.00,,---,0.09,VWS V14.01,2013-03-06 00:04:00,
2013-03-05 18:09:00,29.9,27.1,29.95,North,355,13.0,21.0,89,0.00,,---,0.09,VWS V14.01,2013-03-06 00:09:00,
2013-03-05 18:14:00,29.9,27.1,29.96,West,277,12.0,21.0,89,0.00,,---,0.09,VWS V14.01,2013-03-06 00:14:00,
2013-03-05 18:19:00,29.9,27.3,29.96,West,267,11.0,21.0,90,0.00,,---,0.09,VWS V14.01,2013-03-06 00:19:00,
2013-03-05 18:24:00,29.9,27.3,29.96,NW,319,11.0,23.0,90,0.00,,---,0.09,VWS V14.01,2013-03-06 00:24:00,
2013-03-05 18:29:00,29.9,27.3,29.96,WNW,286,10.0,10.0,90,0.00,,---,0.09,VWS V14.01,2013-03-06 00:29:00,
2013-03-05 18:30:00,30.1,27.8,29.99,WNW,288,8.0,19.0,91,0.00,,---,0.09,VWS V14.01,2013-03-06 00:30:00,
2013-03-05 18:34:00,29.9,27.3,29.97,NW,319,9.0,21.0,90,0.00,,---,0.09,VWS V14.01,2013-03-06 00:34:00,
2013-03-05 18:39:00,29.9,27.3,29.97,West,279,15.0,21.0,90,0.00,,---,0.09,VWS V14.01,2013-03-06 00:39:00,
2013-03-05 18:44:00,29.9,27.3,29.97,West,276,12.0,21.0,90,0.00,,---,0.09,VWS V14.01,2013-03-06 00:44:00,
2013-03-05 18:49:00,30.0,27.4,29.97,WNW,290,7.0,22.0,90,0.00,,---,0.09,VWS V14.01,2013-03-06 00:49:00,
2013-03-05 18:54:00,30.1,27.5,29.97,NW,310,9.0,22.0,90,0.00,,---,0.09,VWS V14.01,2013-03-06 00:54:00,
2013-03-05 18:59:00,30.1,27.5,29.97,NW,307,7.0,19.0,90,0.00,,---,0.09,VWS V14.01,2013-03-06 00:59:00,
2013-03-05 19:00:00,29.9,27.3,30.00,North,351,8.0,24.0,90,0.00,,---,0.09,VWS V14.01,2013-03-06 01:00:00,
2013-03-05 19:04:00,30.1,27.5,29.97,NW,313,7.0,19.0,90,0.00,,---,0.09,VWS V14.01,2013-03-06 01:04:00,
2013-03-05 19:09:00,30.1,27.8,29.97,NW,310,10.0,19.0,91,0.00,,---,0.09,VWS V14.01,2013-03-06 01:09:00,
2013-03-05 19:14:00,30.1,27.8,29.98,WSW,253,15.0,19.0,91,0.00,,---,0.09,VWS V14.01,2013-03-06 01:14:00,
2013-03-05 19:19:00,30.1,27.5,29.98,WNW,300,11.0,19.0,90,0.00,,---,0.09,VWS V14.01,2013-03-06 01:19:00,
2013-03-05 19:24:00,30.1,27.8,29.98,NW,305,8.0,19.0,91,0.00,,---,0.09,VWS V14.01,2013-03-06 01:24:00,
2013-03-05 19:29:00,30.1,27.8,29.99,SW,221,8.0,10.0,91,0.00,,---,0.09,VWS V14.01,2013-03-06 01:29:00,
2013-03-05 19:30:00,29.8,27.2,30.01,NNW,331,11.0,22.0,90,0.00,,---,0.09,VWS V14.01,2013-03-06 01:30:00,
2013-03-05 19:34:00,30.1,27.8,29.99,NW,320,19.0,19.0,91,0.00,,---,0.09,VWS V14.01,2013-03-06 01:34:00,
2013-03-05 19:39:00,30.1,27.5,29.99,WNW,292,15.0,24.0,90,0.00,,---,0.09,VWS V14.01,2013-03-06 01:39:00,
2013-03-05 19:44:00,30.1,27.8,29.99,NW,306,12.0,24.0,91,0.00,,---,0.09,VWS V14.01,2013-03-06 01:44:00,
2013-03-05 19:49:00,30.1,27.5,30.00,West,271,15.0,24.0,90,0.00,,---,0.09,VWS V14.01,2013-03-06 01:49:00,
2013-03-05 19:54:00,30.0,27.4,30.00,NW,320,8.0,24.0,90,0.00,,---,0.09,VWS V14.01,2013-03-06 01:54:00,
2013-03-05 19:59:00,29.9,27.3,30.00,NW,320,7.0,11.0,90,0.00,,---,0.09,VWS V14.01,2013-03-06 01:59:00,
2013-03-05 20:00:00,29.4,27.1,30.03,NW,321,7.0,22.0,91,0.00,,---,0.09,VWS V14.01,2013-03-06 02:00:00,
2013-03-05 20:04:00,29.9,27.3,30.00,NNW,329,8.0,19.0,90,0.00,,---,0.09,VWS V14.01,2013-03-06 02:04:00,
2013-03-05 20:09:00,29.8,27.2,30.00,WNW,300,12.0,19.0,90,0.00,,---,0.09,VWS V14.01,2013-03-06 02:09:00,
2013-03-05 20:14:00,29.8,27.2,30.01,WNW,296,15.0,19.0,90,0.00,,---,0.09,VWS V14.01,2013-03-06 02:14:00,
2013-03-05 20:19:00,29.8,27.2,30.01,NNW,335,9.0,19.0,90,0.00,,---,0.09,VWS V14.01,2013-03-06 02:19:00,
2013-03-05 20:24:00,29.8,27.2,30.01,NW,315,13.0,22.0,90,0.00,,---,0.09,VWS V14.01,2013-03-06 02:24:00,
2013-03-05 20:29:00,29.8,27.2,30.01,North,355,19.0,19.0,90,0.00,,---,0.09,VWS V14.01,2013-03-06 02:29:00,
2013-03-05 20:30:00,29.0,26.7,30.06,WNW,301,6.0,19.0,91,0.00,,---,0.09,VWS V14.01,2013-03-06 02:30:00,
2013-03-05 20:34:00,29.8,27.2,30.02,NNW,327,9.0,22.0,90,0.00,,---,0.09,VWS V14.01,2013-03-06 02:34:00,
2013-03-05 20:39:00,29.7,27.1,30.02,NW,318,8.0,22.0,90,0.00,,---,0.09,VWS V14.01,2013-03-06 02:39:00,
2013-03-05 20:44:00,29.7,27.1,30.02,NW,325,12.0,22.0,90,0.00,,---,0.09,VWS V14.01,2013-03-06 02:44:00,
2013-03-05 20:49:00,29.6,27.0,30.03,NNW,328,16.0,22.0,90,0.00,,---,0.09,VWS V14.01,2013-03-06 02:49:00,
2013-03-05 20:54:00,29.5,27.2,30.03,NW,323,14.0,22.0,91,0.00,,---,0.09,VWS V14.01,2013-03-06 02:54:00,
2013-03-05 20:59:00,29.4,27.1,30.03,NW,309,10.0,10.0,91,0.00,,---,0.09,VWS V14.01,2013-03-06 02:59:00,
2013-03-05 21:00:00,28.6,26.0,30.07,NW,318,9.0,18.0,90,0.00,,---,0.09,VWS V14.01,2013-03-06 03:00:00,
2013-03-05 21:04:00,29.3,27.0,30.04,NNW,332,7.0,14.0,91,0.00,,---,0.09,VWS V14.01,2013-03-06 03:04:00,
2013-03-05 21:09:00,29.2,26.9,30.04,North,350,12.0,14.0,91,0.00,,---,0.09,VWS V14.01,2013-03-06 03:09:00,
2013-03-05 21:14:00,29.2,26.9,30.05,NNW,339,9.0,16.0,91,0.00,,---,0.09,VWS V14.01,2013-03-06 03:14:00,
2013-03-05 21:19:00,29.1,26.8,30.05,NNW,344,12.0,19.0,91,0.00,,---,0.09,VWS V14.01,2013-03-06 03:19:00,
2013-03-05 21:24:00,29.1,26.8,30.05,NW,305,10.0,19.0,91,0.00,,---,0.09,VWS V14.01,2013-03-06 03:24:00,
2013-03-05 21:29:00,29.0,26.7,30.06,NNW,333,8.0,8.0,91,0.00,,---,0.09,VWS V14.01,2013-03-06 03:29:00,
2013-03-05 21:30:00,28.1,25.8,30.08,NNW,336,10.0,16.0,91,0.00,,---,0.09,VWS V14.01,2013-03-06 03:30:00,
2013-03-05 21:34:00,29.0,26.7,30.06,NNW,333,9.0,18.0,91,0.00,,---,0.09,VWS V14.01,2013-03-06 03:34:00,
2013-03-05 21:39:00,29.0,26.7,30.06,WNW,288,9.0,18.0,91,0.00,,---,0.09,VWS V14.01,2013-03-06 03:39:00,
2013-03-05 21:44:00,28.9,26.3,30.06,NW,306,12.0,18.0,90,0.00,,---,0.09,VWS V14.01,2013-03-06 03:44:00,
2013-03-05 21:49:00,28.8,26.2,30.07,NW,325,6.0,18.0,90,0.00,,---,0.09,VWS V14.01,2013-03-06 03:49:00,
2013-03-05 21:54:00,28.7,26.1,30.07,NW,326,10.0,18.0,90,0.00,,---,0.09,VWS V14.01,2013-03-06 03:54:00,
2013-03-05 21:59:00,28.6,26.0,30.07,NW,318,9.0,9.0,90,0.00,,---,0.09,VWS V14.01,2013-03-06 03:59:00,
2013-03-05 22:00:00,28.4,25.9,30.09,NW,314,8.0,19.0,90,0.00,,---,0.09,VWS V14.01,2013-03-06 04:00:00,
2013-03-05 22:04:00,28.5,26.0,30.07,NNW,344,10.0,16.0,90,0.00,,---,0.09,VWS V14.01,2013-03-06 04:04:00,
2013-03-05 22:09:00,28.4,25.9,30.08,NW,323,13.0,16.0,90,0.00,,---,0.09,VWS V14.01,2013-03-06 04:09:00,
2013-03-05 22:14:00,28.3,25.8,30.08,NNW,333,6.0,16.0,90,0.00,,---,0.09,VWS V14.01,2013-03-06 04:14:00,
2013-03-05 22:19:00,28.2,25.6,30.08,North,355,8.0,16.0,90,0.00,,---,0.09,VWS V14.01,2013-03-06 04:19:00,
2013-03-05 22:24:00,28.1,25.5,30.09,West,262,1.0,16.0,90,0.00,,---,0.09,VWS V14.01,2013-03-06 04:24:00,
2013-03-05 22:29:00,28.0,25.7,30.08,WNW,300,13.0,13.0,91,0.00,,---,0.09,VWS V14.01,2013-03-06 04:29:00,
2013-03-05 22:30:00,27.8,25.0,30.10,NW,316,10.0,18.0,89,0.00,,---,0.09,VWS V14.01,2013-03-06 04:30:00,
2013-03-05 22:34:00,28.1,25.8,30.09,NNW,327,8.0,15.0,91,0.00,,---,0.09,VWS V14.01,2013-03-06 04:34:00,
2013-03-05 22:39:00,28.3,26.0,30.09,NW,310,8.0,15.0,91,0.00,,---,0.09,VWS V14.01,2013-03-06 04:39:00,
2013-03-05 22:44:00,28.4,26.1,30.09,NNW,329,11.0,18.0,91,0.00,,---,0.09,VWS V14.01,2013-03-06 04:44:00,
2013-03-05 22:49:00,28.4,26.1,30.08,NW,319,19.0,19.0,91,0.00,,---,0.09,VWS V14.01,2013-03-06 04:49:00,
2013-03-05 22:54:00,28.4,25.9,30.09,NNW,328,8.0,19.0,90,0.00,,---,0.09,VWS V14.01,2013-03-06 04:54:00,
2013-03-05 22:59:00,28.4,25.9,30.09,WNW,303,9.0,9.0,90,0.00,,---,0.09,VWS V14.01,2013-03-06 04:59:00,
2013-03-05 23:00:00,28.4,25.9,30.09,NW,322,9.0,10.0,90,0.00,,---,0.09,VWS V14.01,2013-03-06 05:00:00,
2013-03-05 23:05:00,28.4,25.9,30.09,WNW,294,8.0,18.0,90,0.00,,---,0.09,VWS V14.01,2013-03-06 05:05:00,
2013-03-05 23:10:00,28.3,25.8,30.10,WNW,296,9.0,18.0,90,0.00,,---,0.09,VWS V14.01,2013-03-06 05:10:00,
2013-03-05 23:15:00,28.3,25.8,30.10,NNW,336,11.0,18.0,90,0.00,,---,0.09,VWS V14.01,2013-03-06 05:15:00,
2013-03-05 23:20:00,28.1,25.3,30.10,North,355,8.0,18.0,89,0.00,,---,0.09,VWS V14.01,2013-03-06 05:20:00,
2013-03-05 23:25:00,27.9,25.1,30.10,NW,305,8.0,18.0,89,0.00,,---,0.09,VWS V14.01,2013-03-06 05:25:00,
2013-03-05 23:30:00,27.7,24.9,30.10,NW,316,7.0,10.0,89,0.00,,---,0.09,VWS V14.01,2013-03-06 05:30:00,
2013-03-05 23:35:00,27.5,24.7,30.10,NW,316,8.0,12.0,89,0.00,,---,0.09,VWS V14.01,2013-03-06 05:35:00,
2013-03-05 23:40:00,27.4,24.6,30.11,NNW,337,9.0,15.0,89,0.00,,---,0.09,VWS V14.01,2013-03-06 05:40:00,
2013-03-05 23:45:00,27.2,24.4,30.11,WNW,289,12.0,16.0,89,0.00,,---,0.09,VWS V14.01,2013-03-06 05:45:00,
2013-03-05 23:50:00,27.1,24.3,30.11,NW,308,7.0,16.0,89,0.00,,---,0.09,VWS V14.01,2013-03-06 05:50:00,
2013-03-05 23:55:00,27.1,24.3,30.12,NNW,327,8.0,16.0,89,0.00,,---,0.09,VWS V14.01,2013-03-06 05:55:00,